Montevideo, MN

7:42 PM CST on December 05, 2016 (GMT -0600)
Montevideo-Chippewa County

Weather History for KMVE - July, 2013

Change the Weather History Date:

Friday, July 12, 2013

  Actual Average Record
Temperature  
Mean Temperature 78 °F -  
Max Temperature 87 °F 84 °F 96 °F (1980)
Min Temperature 69 °F 61 °F 44 °F (1975)
Cooling Degree Days 13    
Growing Degree Days 28 (Base 50)    
Moisture  
Dew Point 66 °F    
Average Humidity 64    
Maximum Humidity 73    
Minimum Humidity 55    
Precipitation  
Precipitation 0.00 in - - ()
Sea Level Pressure  
Sea Level Pressure 29.87 in    
Wind  
Wind Speed 12 mph (SSW)    
Max Wind Speed 20 mph    
Max Gust Speed 30 mph    
Visibility 10 miles    
Events      
Averages and records for this station are not official NWS values.
T = Trace of Precipitation, MM = Missing Value Source: NWS Daily Summary

Daily Weather History Graph

Daily Weather History Graph

Search for Another Location

Airport or City:

Trip Planner

Search our weather history database for the weather conditions in past years. The results will help you decide how hot, cold, wet, or windy it might be!

Date:

Astronomy

Jul. 12, 2013 Rise Set
Actual Time 5:48 AM CDT 9:08 PM CDT
Civil Twilight 5:11 AM CDT 9:44 PM CDT
Nautical Twilight 4:24 AM CDT 10:31 PM CDT
Astronomical Twilight 3:25 AM CDT 11:30 PM CDT
Moon 10:19 AM CDT (7/12) 11:04 PM CDT (7/12)
Length of Visible Light 16h 32m
Length of Day
15h 20m
Waxing Crescent, 17% of the Moon is Illuminated
Jul 12
Waxing Crescent
Jul 15
First Quarter
Jul 22
Full
Jul 29
Last Quarter
Aug 6
New

Hourly Weather History & Observations

Time (CDT) Temp. Heat Index Dew Point Humidity Pressure Visibility Wind Dir Wind Speed Gust Speed Precip Events Conditions
12:14 AM 73.4 °F - 62.6 °F 69% 29.93 in 10.0 mi SSW 11.5 mph 17.3 mph N/A   Clear
12:34 AM 73.4 °F - 62.6 °F 69% 29.94 in 10.0 mi SSW 9.2 mph - N/A   Clear
12:54 AM 71.6 °F - 62.6 °F 73% 29.93 in 10.0 mi SSW 11.5 mph 17.3 mph N/A   Clear
1:14 AM 71.6 °F - 62.6 °F 73% 29.93 in 10.0 mi SSW 10.4 mph 17.3 mph N/A   Clear
1:34 AM 71.6 °F - 62.6 °F 73% 29.93 in 10.0 mi SSW 11.5 mph 17.3 mph N/A   Clear
1:54 AM 71.6 °F - 62.6 °F 73% 29.92 in 10.0 mi SSW 10.4 mph 17.3 mph N/A   Clear
2:14 AM 71.6 °F - 60.8 °F 69% 29.92 in 10.0 mi SSW 9.2 mph - N/A   Clear
2:34 AM 71.6 °F - 60.8 °F 69% 29.92 in 10.0 mi SSW 11.5 mph - N/A   Clear
2:54 AM 71.6 °F - 60.8 °F 69% 29.92 in 10.0 mi SSW 9.2 mph - N/A   Clear
3:14 AM 71.6 °F - 60.8 °F 69% 29.91 in 10.0 mi SSW 11.5 mph 16.1 mph N/A   Clear
3:34 AM 71.6 °F - 60.8 °F 69% 29.91 in 10.0 mi SSW 11.5 mph 17.3 mph N/A   Clear
3:54 AM 69.8 °F - 60.8 °F 73% 29.91 in 10.0 mi SSW 11.5 mph - N/A   Clear
4:14 AM 71.6 °F - 60.8 °F 69% 29.91 in 10.0 mi SSW 11.5 mph 17.3 mph N/A   Clear
4:34 AM 69.8 °F - 60.8 °F 73% 29.92 in 10.0 mi SSW 9.2 mph - N/A   Clear
4:54 AM 69.8 °F - 60.8 °F 73% 29.92 in 10.0 mi SSW 9.2 mph - N/A   Clear
5:14 AM 69.8 °F - 60.8 °F 73% 29.91 in 10.0 mi SSW 11.5 mph 17.3 mph N/A   Clear
5:34 AM 69.8 °F - 60.8 °F 73% 29.92 in 10.0 mi SSW 11.5 mph 16.1 mph N/A   Clear
5:54 AM 69.8 °F - 60.8 °F 73% 29.91 in 10.0 mi SSW 9.2 mph 17.3 mph N/A   Clear
6:14 AM 69.8 °F - 60.8 °F 73% 29.92 in 10.0 mi SSW 8.1 mph - N/A   Clear
6:34 AM 69.8 °F - 60.8 °F 73% 29.91 in 10.0 mi South 9.2 mph - N/A   Clear
6:52 AM 69.8 °F - 60.8 °F 73% 29.91 in 10.0 mi South 10.4 mph 16.1 mph N/A   Clear
7:14 AM 69.8 °F - 60.8 °F 73% 29.91 in 10.0 mi South 8.1 mph - N/A   Clear
7:34 AM 69.8 °F - 60.8 °F 73% 29.91 in 10.0 mi SSW 11.5 mph - N/A   Clear
7:54 AM 71.6 °F - 62.6 °F 73% 29.91 in 10.0 mi SSW 9.2 mph - N/A   Clear
8:14 AM 71.6 °F - 62.6 °F 73% 29.91 in 10.0 mi South 9.2 mph 16.1 mph N/A   Clear
8:34 AM 73.4 °F - 62.6 °F 69% 29.91 in 10.0 mi SSW 9.2 mph - N/A   Clear
8:54 AM 73.4 °F - 62.6 °F 69% 29.90 in 10.0 mi South 11.5 mph 17.3 mph N/A   Clear
9:14 AM 75.2 °F - 64.4 °F 69% 29.90 in 10.0 mi SSW 11.5 mph - N/A   Clear
9:34 AM 77.0 °F - 62.6 °F 61% 29.90 in 10.0 mi SSW 11.5 mph 20.7 mph N/A   Clear
9:54 AM 78.8 °F - 62.6 °F 57% 29.89 in 10.0 mi SSW 15.0 mph 24.2 mph N/A   Clear
10:14 AM 78.8 °F - 64.4 °F 61% 29.89 in 10.0 mi SSW 15.0 mph 24.2 mph N/A   Clear
10:34 AM 80.6 °F 82.3 °F 64.4 °F 58% 29.89 in 10.0 mi SSW 11.5 mph 23.0 mph N/A   Clear
10:54 AM 80.6 °F 82.3 °F 64.4 °F 58% 29.88 in 10.0 mi SSW 12.7 mph 19.6 mph N/A   Clear
11:14 AM 80.6 °F 82.7 °F 66.2 °F 61% 29.88 in 10.0 mi SSW 11.5 mph 19.6 mph N/A   Clear
11:34 AM 82.4 °F 84.6 °F 66.2 °F 58% 29.88 in 10.0 mi SSW 11.5 mph 17.3 mph N/A   Clear
11:54 AM 82.4 °F 84.6 °F 66.2 °F 58% 29.87 in 10.0 mi SSW 17.3 mph 21.9 mph N/A   Clear
12:14 PM 82.4 °F 85.4 °F 68.0 °F 62% 29.87 in 10.0 mi SSW 11.5 mph 21.9 mph N/A   Clear
12:34 PM 84.2 °F 87.3 °F 68.0 °F 58% 29.86 in 10.0 mi SSW 13.8 mph 24.2 mph N/A   Clear
12:54 PM 84.2 °F 88.4 °F 69.8 °F 62% 29.86 in 10.0 mi SSW 16.1 mph 23.0 mph N/A   Clear
1:14 PM 84.2 °F 88.4 °F 69.8 °F 62% 29.85 in 10.0 mi SSW 16.1 mph 26.5 mph N/A   Clear
1:34 PM 86.0 °F 90.4 °F 69.8 °F 58% 29.85 in 10.0 mi SSW 15.0 mph 25.3 mph N/A   Clear
1:54 PM 86.0 °F 90.4 °F 69.8 °F 58% 29.85 in 10.0 mi SSW 18.4 mph 25.3 mph N/A   Clear
2:14 PM 86.0 °F 90.4 °F 69.8 °F 58% 29.84 in 10.0 mi SSW 15.0 mph 27.6 mph N/A   Clear
2:34 PM 87.8 °F 92.6 °F 69.8 °F 55% 29.84 in 10.0 mi SSW 15.0 mph 26.5 mph N/A   Clear
2:54 PM 87.8 °F 93.8 °F 71.6 °F 58% 29.84 in 10.0 mi SSW 13.8 mph 28.8 mph N/A   Clear
3:14 PM 87.8 °F 93.8 °F 71.6 °F 58% 29.83 in 10.0 mi SSW 16.1 mph 24.2 mph N/A   Clear
3:34 PM 87.8 °F 93.8 °F 71.6 °F 58% 29.82 in 10.0 mi SSW 17.3 mph 24.2 mph N/A   Clear
3:54 PM 87.8 °F 92.6 °F 69.8 °F 55% 29.82 in 10.0 mi SSW 19.6 mph 26.5 mph N/A   Clear
4:14 PM 87.8 °F 93.8 °F 71.6 °F 58% 29.82 in 10.0 mi SSW 17.3 mph 29.9 mph N/A   Clear
4:34 PM 87.8 °F 93.8 °F 71.6 °F 58% 29.82 in 10.0 mi SSW 16.1 mph 25.3 mph N/A   Clear
4:54 PM 87.8 °F 92.6 °F 69.8 °F 55% 29.82 in 10.0 mi SSW 16.1 mph 23.0 mph N/A   Clear
5:14 PM 87.8 °F 92.6 °F 69.8 °F 55% 29.82 in 10.0 mi SSW 15.0 mph 26.5 mph N/A   Clear
5:34 PM 87.8 °F 92.6 °F 69.8 °F 55% 29.82 in 10.0 mi SSW 17.3 mph 21.9 mph N/A   Clear
5:54 PM 87.8 °F 92.6 °F 69.8 °F 55% 29.82 in 10.0 mi SSW 12.7 mph 19.6 mph N/A   Clear
6:14 PM 87.8 °F 92.6 °F 69.8 °F 55% 29.81 in 10.0 mi SSW 13.8 mph 21.9 mph N/A   Clear
6:34 PM 87.8 °F 92.6 °F 69.8 °F 55% 29.82 in 10.0 mi South 13.8 mph 21.9 mph N/A   Clear
6:54 PM 87.8 °F 92.6 °F 69.8 °F 55% 29.82 in 10.0 mi SSW 12.7 mph 18.4 mph N/A   Clear
7:14 PM 86.0 °F 90.4 °F 69.8 °F 58% 29.82 in 10.0 mi SSW 9.2 mph 18.4 mph N/A   Clear
7:34 PM 86.0 °F 90.4 °F 69.8 °F 58% 29.82 in 10.0 mi SSW 10.4 mph - N/A   Clear
7:54 PM 86.0 °F 90.4 °F 69.8 °F 58% 29.82 in 10.0 mi SSW 11.5 mph 17.3 mph N/A   Clear
8:14 PM 84.2 °F 88.4 °F 69.8 °F 62% 29.82 in 10.0 mi SSW 9.2 mph 16.1 mph N/A   Clear
8:34 PM 84.2 °F 87.3 °F 68.0 °F 58% 29.82 in 10.0 mi SSW 10.4 mph 16.1 mph N/A   Clear
8:54 PM 82.4 °F 85.4 °F 68.0 °F 62% 29.82 in 10.0 mi South 9.2 mph - N/A   Clear
9:14 PM 82.4 °F 85.4 °F 68.0 °F 62% 29.82 in 10.0 mi SSW 10.4 mph - N/A   Clear
9:34 PM 82.4 °F 84.6 °F 66.2 °F 58% 29.82 in 10.0 mi SSW 9.2 mph 17.3 mph N/A   Scattered Clouds
9:54 PM 80.6 °F 83.2 °F 68.0 °F 65% 29.82 in 10.0 mi South 10.4 mph - N/A   Mostly Cloudy
10:14 PM 80.6 °F 82.7 °F 66.2 °F 61% 29.84 in 10.0 mi South 9.2 mph - N/A   Mostly Cloudy
10:34 PM 80.6 °F 82.7 °F 66.2 °F 61% 29.85 in 10.0 mi South 10.4 mph - N/A   Mostly Cloudy
10:54 PM 80.6 °F 82.7 °F 66.2 °F 61% 29.85 in 10.0 mi SSW 10.4 mph 16.1 mph N/A   Scattered Clouds
11:14 PM 80.6 °F 83.2 °F 68.0 °F 65% 29.86 in 10.0 mi SSW 8.1 mph - N/A   Mostly Cloudy
11:34 PM 80.6 °F 83.2 °F 68.0 °F 65% 29.86 in 10.0 mi SSW 9.2 mph - N/A   Scattered Clouds
11:54 PM 78.8 °F - 68.0 °F 69% 29.87 in 10.0 mi SSW 6.9 mph - N/A   Mostly Cloudy